Wind_Gust
16 21 17 16 17 19 20 20 21 28 28 28 27 23 27 14 11 17 15 10 24 19 13 10 13 12 18 11 15 17 25 22 27 20 14 26 17 20 21 26 28 26 27 29 28 27 25 19 18 18 18 18 18 17 17 18 18 17 17 17 16 15 14 15 16 16 16 17 16 16 16 15 15 15 14 13 14 13 11 8 13 13 12 12 11 9 10 11 11 12 12 11 11 12 12 12 12
20 16 14 15 19 21 21 20 28 21 26 26 29 22 18 16 12 16 19 10 18 15 11 11 11 12 10 12 15 14 23 29 25 29 26 22 22 23 23 25 28 28 27 28 28 27 25 24 17 17 18 18 18 17 17 18 18 18 18 18 17 17 16 15 16 16 16 15 15 16 16 15 15 14 14 14 15 15 14 13 12 12 12 13 12 11 11 11 10 10 10 10 11 12 12 12 12
18 14 18 18 20 24 21 19 25 24 27 27 24 34 19 18 15 14 14 13 13 10 10 10 9 10 11 12 11 17 19 21 25 24 25 21 25 23 23 24 26 26 27 28 28 26 25 22 17 18 18 17 17 17 17 17 17 18 18 18 18 17 16 16 15 15 15 15 15 15 15 14 14 13 14 14 14 14 15 13 11 12 12 12 12 12 11 11 9 9 9 10 11 12 13 12 12
18 16 21 18 21 20 23 23 25 26 26 24 26 22 14 12 11 16 10 9 9 11 10 14 18 13 16 17 13 17 20 21 19 20 30 23 25 26 25 23 25 26 23 25 27 26 24 23 18 18 18 16 16 16 17 18 18 17 17 16 16 16 16 15 15 14 14 14 15 15 14 13 13 13 13 12 10 10 11 10 9 11 10 10 10 9 8 7 8 9 9 10 11 11 13 13 11
18 17 19 21 23 23 23 24 25 26 28 25 25 23 15 12 15 9 12 9 10 11 15 13 12 13 14 18 14 18 21 22 20 16 25 20 23 25 24 24 24 27 25 23 25 25 25 22 19 18 18 17 16 16 17 18 18 17 17 17 16 16 16 15 15 15 15 15 14 14 14 13 14 14 13 13 11 10 10 9 8 8 8 8 8 7 7 4 7 8 8 9 12 11 12 13 13
19 18 17 21 24 27 26 25 24 27 25 26 27 21 13 12 11 11 11 11 9 13 10 13 15 20 18 20 23 22 15 13 21 18 22 23 24 24 23 24 25 26 24 22 23 24 27 20 19 18 17 17 16 15 17 18 18 17 17 16 16 16 15 14 14 15 15 15 14 14 14 14 14 14 14 13 12 11 11 10 9 9 9 9 8 8 7 5 4 7 7 9 12 12 13 13 13
20 18 21 21 27 25 23 24 26 25 24 21 24 20 16 13 13 12 13 12 12 13 12 14 11 17 14 21 23 21 18 15 19 21 17 23 24 25 23 25 25 25 26 24 22 25 27 19 19 18 17 18 16 15 15 17 17 17 17 16 16 17 16 15 14 14 15 14 14 14 14 14 14 13 13 13 12 11 11 10 10 10 9 8 9 8 7 5 7 9 11 13 13 14 15 14 13
18 24 19 22 21 24 25 26 28 25 21 17 16 19 11 14 12 10 11 16 20 23 17 9 15 15 15 14 17 16 17 17 21 20 22 24 23 22 21 23 24 24 24 24 22 24 22 18 17 17 18 17 17 16 15 15 17 16 17 16 17 16 16 15 15 14 13 14 14 14 14 13 13 12 13 13 13 12 12 11 11 10 9 9 9 9 7 6 12 14 15 15 15 15 15 15 14
20 24 13 22 25 25 25 27 27 24 25 14 15 12 8 15 11 14 16 13 13 14 14 16 14 18 15 16 18 18 17 16 21 21 22 24 24 23 23 22 23 24 24 25 24 26 24 17 16 16 17 18 16 16 15 15 15 15 16 17 16 15 15 15 15 14 13 12 13 14 13 13 12 12 12 12 12 11 11 11 11 10 10 9 9 9 7 8 14 16 15 14 14 15 15 15 13
22 22 20 23 20 26 25 26 27 26 21 12 14 15 12 11 14 11 16 15 17 15 14 12 13 14 23 21 18 14 19 18 22 22 21 23 23 22 21 21 22 23 24 27 25 26 25 19 15 16 15 16 15 15 14 13 15 14 15 14 12 13 13 13 14 14 13 13 12 13 13 13 12 12 12 12 12 11 11 11 11 10 10 10 9 9 10 11 14 16 15 14 15 14 13 14 12
26 25 20 24 23 26 26 24 27 22 19 17 16 12 11 10 13 15 13 19 13 17 13 15 21 15 23 21 18 15 18 22 23 24 23 22 21 22 22 21 22 21 24 26 24 24 27 25 19 15 14 14 14 14 13 13 12 12 12 12 11 11 12 11 12 12 12 13 13 14 13 13 13 13 12 12 13 11 11 11 11 10 10 10 9 10 12 13 14 14 13 14 14 11 10 11 10
24 23 22 25 24 24 24 28 26 13 12 14 20 15 15 12 10 15 16 20 14 16 17 18 24 17 21 22 17 18 19 22 23 22 23 23 22 22 21 22 20 21 22 23 23 23 26 27 25 20 15 14 13 14 13 12 10 11 12 13 12 11 11 11 11 11 12 12 13 13 13 13 14 12 11 12 12 11 11 11 11 11 10 10 10 11 12 12 13 13 12 13 13 10 9 8 8
25 19 22 25 25 25 25 25 22 18 18 16 20 23 14 13 15 14 16 18 15 16 20 20 17 20 19 18 22 17 20 22 21 23 23 23 23 22 20 21 21 22 21 22 21 23 24 25 28 27 20 15 9 9 11 12 10 10 11 11 10 10 11 11 11 12 12 12 12 12 12 12 13 12 11 11 11 11 10 10 10 10 10 10 10 9 12 12 12 13 13 14 13 10 8 7 6
25 20 20 26 21 27 24 21 19 21 22 20 22 16 10 13 12 15 17 18 17 21 15 17 14 31 22 22 19 18 21 20 22 21 21 22 21 21 20 22 20 21 21 21 22 22 23 22 23 24 26 18 17 10 6 9 10 9 9 9 10 10 11 11 11 10 11 12 12 11 11 11 11 10 9 8 9 8 9 10 9 10 11 11 11 11 11 11 12 12 13 12 12 10 7 7 5
23 17 22 24 27 23 19 28 23 21 25 23 17 10 11 12 13 15 19 18 21 15 21 12 15 22 22 16 21 22 22 23 20 19 20 19 20 20 20 21 19 18 20 21 21 20 21 24 24 22 22 18 20 17 18 14 9 10 10 9 10 10 11 10 11 11 11 12 12 11 12 10 9 9 9 7 7 8 9 10 8 9 11 11 11 11 11 11 11 11 11 11 10 10 9 8 6
21 19 20 24 25 23 23 23 19 19 26 21 18 10 13 11 15 18 18 21 20 11 16 26 15 19 26 26 23 27 26 23 21 20 21 21 20 20 22 20 20 19 18 19 19 19 22 25 22 23 23 20 19 17 18 19 13 9 10 10 11 10 8 10 10 11 11 11 11 11 10 13 10 12 7 12 8 7 8 9 9 10 11 11 11 11 12 12 11 12 11 11 11 10 9 8 6
18 20 23 25 26 22 18 20 14 25 19 14 17 12 15 16 13 17 14 14 19 16 19 18 18 14 14 18 28 31 27 22 21 22 21 22 22 22 21 19 18 18 18 17 16 16 20 24 25 21 20 19 19 18 17 17 18 12 11 8 9 9 10 10 12 11 10 9 11 9 8 14 12 14 10 13 7 12 6 6 10 10 10 11 11 12 12 13 12 12 10 11 11 10 9 8 6
19 24 23 24 23 24 15 20 18 19 17 14 12 14 14 17 11 10 13 20 22 16 21 17 18 12 23 29 29 30 29 26 24 24 23 23 21 22 21 20 20 18 18 18 16 16 18 21 24 21 21 21 19 18 17 17 16 16 16 15 16 14 10 9 12 16 12 15 6 13 14 12 11 10 12 9 16 13 9 6 9 11 10 11 11 12 13 13 14 13 12 11 11 10 10 15 13
23 23 25 25 22 18 12 13 16 18 15 18 14 13 14 16 13 14 21 19 23 24 22 19 17 21 25 28 28 27 27 27 25 24 24 22 21 21 21 20 18 18 18 17 16 15 15 17 26 26 26 20 19 18 17 16 16 17 17 16 17 12 15 16 16 17 18 19 19 17 13 13 9 11 9 13 16 5 9 10 10 11 11 12 13 12 12 14 14 14 14 13 11 10 15 15 15
22 24 25 25 20 17 9 11 16 14 17 16 14 14 16 13 15 12 19 20 21 28 28 27 25 25 27 29 27 27 27 26 25 25 25 23 21 21 19 18 19 18 18 17 18 15 14 13 18 24 24 24 19 16 15 16 16 13 12 12 14 18 16 15 14 13 15 14 18 15 13 12 10 9 8 10 10 12 10 8 10 12 13 13 13 13 14 13 14 13 13 12 10 13 17 18 16
21 27 26 22 13 16 11 10 12 14 13 15 15 14 19 13 14 15 15 20 22 23 24 24 28 29 26 28 28 27 26 25 24 23 22 23 21 20 20 19 19 19 17 17 16 15 14 13 12 19 30 26 20 18 16 17 15 13 14 11 10 13 16 16 15 14 14 13 12 13 14 13 10 8 10 12 16 17 16 17 17 18 19 18 16 16 17 18 17 18 18 18 18 18 18 17 14
18 20 21 24 16 16 14 15 9 12 12 15 14 17 15 16 18 16 17 22 19 22 23 25 30 31 26 28 30 30 27 23 22 23 22 20 20 19 18 18 16 16 17 16 16 14 15 16 15 12 15 22 22 17 16 15 15 15 15 19 15 16 14 10 14 13 13 13 15 10 12 11 15 12 11 13 15 17 16 17 15 19 19 17 18 17 15 19 16 16 15 17 16 13 12 12 9
24 19 22 21 20 20 12 12 11 9 17 17 14 14 15 16 17 13 15 20 14 15 17 15 25 33 29 20 26 28 31 27 23 22 21 20 20 18 19 18 19 19 17 16 16 15 15 15 16 15 13 12 17 23 17 16 14 14 15 16 19 15 11 12 14 15 13 13 12 9 14 13 16 15 14 15 16 17 17 17 22 11 11 16 16 15 12 12 12 13 14 13 13 13 13 14 12
22 26 16 16 14 18 16 16 12 15 17 17 15 14 17 13 21 11 16 10 10 10 10 21 31 24 27 25 21 23 25 27 23 21 21 20 18 18 18 17 19 16 16 16 16 15 15 15 14 15 12 12 11 17 16 14 17 20 16 16 16 14 17 15 14 12 13 14 15 13 11 13 17 20 19 18 17 16 13 8 13 9 12 19 15 16 13 12 13 11 9 11 13 13 15 15 15
24 29 19 17 16 16 15 18 17 14 15 15 15 17 17 13 15 11 16 11 13 14 16 23 23 23 25 25 24 22 22 23 22 20 18 21 18 17 17 18 16 16 16 16 16 16 16 14 13 12 13 10 10 9 16 15 20 22 19 15 16 14 13 13 12 12 12 15 16 16 14 12 14 15 15 18 17 11 12 13 11 16 14 10 10 11 9 11 12 14 10 11 11 12 12 12 14
28 21 17 14 16 16 17 16 15 17 19 14 15 18 14 13 9 17 15 12 12 15 20 20 23 22 23 25 26 24 23 22 22 21 21 20 19 17 17 19 18 16 17 16 15 13 13 15 13 14 10 11 11 10 9 9 9 10 17 17 12 12 11 9 10 14 12 12 14 13 15 15 14 11 12 15 13 9 12 16 14 12 12 13 12 9 9 10 11 12 12 12 12 13 13 13 14
13 14 17 18 18 17 14 16 16 15 18 13 19 16 14 11 19 18 13 15 14 20 26 25 23 26 26 25 25 23 24 22 22 21 20 20 21 20 18 18 18 18 17 16 15 14 12 14 13 12 13 7 10 10 8 9 8 9 9 9 14 14 12 12 11 11 15 9 11 11 10 10 11 10 11 11 11 11 11 11 10 11 13 12 11 12 12 13 12 11 11 11 14 12 15 13 13
14 15 16 18 20 19 17 15 17 17 22 16 18 14 10 13 18 17 19 16 16 22 28 25 28 27 27 28 26 24 25 24 25 22 21 20 22 21 20 20 17 17 17 17 15 14 13 11 15 11 15 9 5 8 9 8 8 8 10 8 9 16 10 10 9 9 14 12 13 9 10 13 13 13 11 11 11 11 12 13 11 11 13 12 11 12 15 14 14 13 12 11 12 8 14 12 11
18 15 21 21 22 26 18 21 21 19 23 18 19 14 19 21 15 16 15 18 15 22 14 21 25 25 24 25 26 26 26 26 24 23 20 20 19 19 20 18 19 18 17 16 15 15 14 10 12 11 13 10 7 7 8 6 7 9 8 9 11 9 10 9 10 13 13 11 11 14 13 13 12 12 12 13 12 13 12 12 13 13 14 13 12 12 13 11 14 11 12 11 10 10 9 10 13
15 17 22 18 20 23 20 15 15 22 16 15 17 26 23 24 18 15 15 17 16 23 28 23 22 23 22 23 26 26 25 27 25 23 22 20 19 19 19 19 18 17 19 17 15 16 15 13 12 11 11 12 8 9 6 9 7 6 6 7 10 9 8 9 8 12 13 14 12 11 11 12 11 10 11 13 14 14 13 14 14 14 14 13 14 13 16 15 17 15 17 16 12 13 14 12 16
24 19 22 24 22 25 22 21 19 25 20 17 20 27 18 20 17 15 13 14 18 18 22 28 27 21 22 25 24 27 26 25 24 22 22 19 20 21 19 20 19 16 18 17 17 17 14 14 12 12 10 11 10 8 8 6 6 7 7 8 7 6 8 8 8 9 11 13 13 11 10 10 11 11 11 11 12 14 15 12 13 14 12 12 14 14 15 16 18 17 16 16 15 17 17 19 19
21 24 23 20 28 25 20 16 19 27 24 21 22 26 19 23 20 15 13 14 16 18 18 19 30 26 20 21 25 25 24 25 24 23 22 21 20 22 21 21 19 16 18 19 18 17 16 14 12 13 12 11 9 9 7 7 8 6 9 7 7 6 6 8 7 7 11 8 9 9 10 11 11 11 12 12 13 14 13 14 13 13 11 12 12 13 13 14 13 16 16 14 14 17 18 20 20
22 25 13 19 19 24 17 16 19 19 22 20 25 26 19 21 21 17 13 15 16 17 18 20 21 28 26 24 23 23 25 24 25 24 22 21 22 22 22 22 20 17 18 19 19 17 16 16 13 13 13 12 10 10 9 8 7 8 8 8 8 6 6 6 7 8 10 12 11 11 11 9 10 10 11 12 13 16 14 13 13 10 11 13 12 9 12 10 11 13 15 15 14 16 18 17 17
21 21 18 13 21 22 18 20 21 17 18 24 25 30 15 20 14 17 16 16 16 17 16 17 18 25 26 23 27 24 24 25 28 26 22 21 23 22 21 20 19 18 18 18 18 18 17 16 15 14 13 12 11 11 9 9 9 9 9 9 7 8 6 5 7 7 8 8 8 10 8 7 6 8 9 9 10 12 12 11 11 10 10 11 8 12 11 12 11 10 13 15 17 13 15 16 16
15 15 12 16 17 19 17 24 25 20 21 30 25 24 21 19 16 14 17 16 17 17 17 17 18 18 26 29 27 22 22 24 24 26 24 21 20 20 22 21 19 17 18 18 18 17 17 16 15 15 14 13 12 11 11 10 10 8 10 8 9 7 8 8 7 7 9 9 9 9 7 7 7 8 8 9 10 11 10 10 11 10 12 9 12 11 13 12 12 11 12 17 15 15 18 17 13
13 13 15 15 18 20 22 23 19 13 18 25 17 22 26 20 17 18 16 13 15 15 15 14 18 20 20 26 31 29 26 22 23 23 24 22 21 20 20 21 19 18 17 18 18 17 17 16 15 16 14 14 12 13 14 13 13 11 10 9 9 8 9 11 9 9 8 10 9 9 9 7 7 8 8 10 8 9 9 9 10 10 13 13 9 9 11 11 11 12 15 14 17 15 17 14 10
15 14 16 15 19 22 22 21 15 11 18 21 22 20 21 18 15 12 12 15 17 18 19 18 18 20 22 22 22 31 28 23 23 24 25 23 22 22 19 20 19 18 18 18 19 17 17 18 17 16 16 15 14 15 14 13 12 11 9 8 10 9 11 10 10 9 11 12 11 11 8 8 8 9 9 8 7 9 11 10 8 9 10 12 16 13 13 11 13 11 12 12 12 16 15 15 12
16 17 18 21 19 20 13 15 14 11 16 21 22 17 19 20 18 14 14 16 20 20 20 20 19 20 20 20 20 23 24 25 24 23 23 23 24 21 19 20 18 21 20 19 19 19 17 17 17 17 17 16 14 12 12 10 9 10 12 12 10 12 14 12 12 12 11 12 10 9 8 8 8 7 7 8 7 8 8 8 8 9 10 7 7 12 12 10 10 13 12 10 13 16 17 14 14
15 21 19 23 20 16 16 14 12 11 15 23 19 21 23 24 20 16 16 17 18 20 20 20 22 21 20 19 18 19 25 26 27 24 23 26 24 23 21 18 19 19 19 20 19 19 18 18 17 17 16 16 15 12 12 12 8 8 6 12 9 13 13 11 11 12 11 13 9 9 8 7 7 8 7 8 7 7 6 8 7 7 7 7 11 8 10 11 12 11 8 10 10 9 12 10 11
20 20 24 21 17 23 21 14 13 13 20 18 19 16 18 20 18 17 17 19 17 15 18 18 18 20 20 19 18 19 21 21 21 22 25 25 25 25 22 21 20 19 20 20 20 21 20 19 17 17 17 15 15 14 11 11 10 9 10 10 10 9 15 12 11 10 11 11 11 8 9 7 7 7 9 8 6 9 7 6 7 8 8 9 10 7 9 11 7 10 8 12 10 10 12 11 11
21 21 21 22 16 16 22 12 12 8 15 15 20 22 27 24 25 26 22 20 16 16 17 18 18 18 16 13 15 17 20 23 24 21 23 25 26 26 26 24 22 22 21 21 22 22 20 19 19 19 18 17 16 15 13 13 14 12 13 13 12 14 13 13 12 13 11 10 11 9 9 8 7 9 8 9 10 8 7 8 8 7 9 8 9 8 8 11 9 10 9 10 12 7 9 10 11
19 17 18 17 14 11 15 11 16 22 21 23 20 28 28 25 29 27 18 21 19 18 21 23 21 21 19 18 19 16 14 18 26 25 24 25 27 25 24 25 24 24 23 22 21 22 19 20 20 19 18 17 17 17 15 15 15 14 15 16 16 14 14 14 14 13 12 11 11 9 10 9 9 8 8 9 11 10 9 7 6 8 7 7 8 10 10 7 9 10 9 8 10 10 8 9 10
20 18 17 15 19 15 16 18 17 22 25 16 14 24 26 15 17 19 18 18 20 20 18 20 22 21 21 20 20 20 19 19 18 23 24 22 24 25 26 26 27 25 24 21 21 22 21 20 20 20 19 18 18 18 17 15 15 15 14 14 13 14 14 13 12 12 11 12 11 9 11 8 9 8 9 10 10 9 9 10 9 10 10 8 9 10 11 11 12 13 12 11 11 7 7 9 9
22 13 15 15 18 18 18 19 21 23 20 16 19 25 26 25 18 14 13 18 18 18 18 17 20 20 20 19 18 16 16 18 21 20 20 21 22 24 26 25 25 27 23 22 21 22 22 21 20 20 19 20 18 19 19 17 17 15 15 13 13 13 13 14 13 12 11 12 12 11 11 10 9 10 8 9 9 9 9 9 8 8 7 9 8 11 10 11 10 11 10 10 10 12 10 7 7
16 10 14 16 18 14 17 19 20 21 17 24 21 22 31 28 19 12 14 18 19 20 18 18 18 17 15 13 13 13 9 9 10 13 16 18 19 22 23 25 25 24 25 24 23 22 22 21 21 20 20 20 20 20 20 18 16 16 16 15 15 13 14 15 14 14 14 13 12 11 9 11 10 8 9 9 8 12 10 10 9 9 9 9 9 11 11 12 11 10 10 10 10 11 11 9 8
8 12 14 17 16 15 19 22 21 18 20 23 23 16 26 23 15 18 20 21 22 19 18 15 17 15 14 13 11 9 11 10 11 12 12 13 15 18 20 21 23 25 24 22 22 22 23 22 22 22 21 20 21 21 20 19 16 17 16 15 15 15 15 16 13 14 13 13 12 11 11 11 11 10 10 10 10 12 11 10 10 10 8 11 13 13 10 10 9 10 10 10 10 9 9 10 11
15 13 20 20 18 19 19 21 23 21 26 27 21 19 23 26 17 16 15 13 14 18 20 17 14 13 13 10 12 12 11 11 11 11 10 10 12 15 17 22 23 23 23 24 23 24 24 24 23 24 22 21 22 22 21 20 18 16 17 15 15 15 15 15 15 14 14 13 14 13 12 12 11 11 11 10 9 11 10 10 9 9 9 8 9 9 10 11 9 9 10 10 10 10 10 9 9
15 23 22 20 22 19 21 22 19 24 26 22 20 18 15 23 19 16 15 13 10 11 15 14 12 12 11 10 11 11 12 13 13 12 11 8 10 15 18 21 22 24 23 24 23 24 25 24 24 25 23 21 22 22 21 21 20 17 15 15 16 16 16 16 15 16 15 13 13 13 12 13 12 12 11 11 10 10 10 10 9 8 9 8 8 8 8 9 9 9 10 10 11 10 9 9 9
21 22 23 20 20 20 23 23 22 24 23 15 13 14 18 25 22 12 13 12 14 11 10 10 12 11 10 10 11 12 13 13 13 12 10 9 9 12 16 19 20 22 23 23 23 22 23 24 25 26 25 22 22 22 22 20 19 18 17 17 16 16 16 16 15 15 14 14 14 13 13 13 13 14 13 12 11 11 10 10 9 9 9 8 8 8 9 9 9 9 10 9 10 10 11 11 11
21 25 19 22 24 23 22 23 21 23 24 12 13 11 22 18 15 10 15 13 13 12 10 10 11 10 10 11 10 12 13 14 15 14 14 12 10 10 13 15 19 21 21 23 23 22 22 23 24 25 25 23 21 21 22 21 20 19 17 17 17 17 16 15 15 16 15 14 14 13 13 12 13 12 13 12 13 12 11 9 8 9 9 9 9 8 7 7 6 9 9 10 9 10 10 9 10
23 20 24 20 23 23 22 25 20 19 16 12 11 12 18 14 13 14 15 14 13 14 15 14 11 11 9 10 13 13 14 15 17 16 15 14 11 8 10 14 17 18 18 20 20 21 22 22 24 24 24 23 21 21 21 21 21 19 18 17 17 17 17 17 17 15 16 15 13 14 13 12 12 13 14 13 14 12 10 10 9 10 10 10 9 8 8 7 6 7 10 8 9 9 9 9 10
20 19 21 23 22 17 28 16 20 18 18 15 19 18 12 18 19 15 15 16 14 15 15 15 13 12 12 12 14 15 16 17 16 15 14 13 12 9 9 10 12 13 15 17 19 18 18 19 20 22 22 22 21 20 19 20 19 18 17 17 17 17 17 17 17 16 16 15 14 14 14 12 12 12 13 13 15 14 12 12 12 11 11 11 10 9 9 9 7 6 9 8 8 9 8 8 9
10 21 25 21 15 21 19 17 16 5 19 31 20 19 26 14 20 17 17 15 16 15 17 16 15 15 14 15 16 17 18 19 17 17 16 13 12 9 10 10 11 12 14 15 16 16 16 16 18 20 20 19 20 19 18 19 19 18 18 17 17 17 17 16 17 15 14 15 15 14 14 14 12 12 13 14 15 15 14 13 13 12 12 12 11 11 9 9 9 8 9 9 8 9 7 8 6
23 21 17 17 16 18 20 21 12 18 24 23 16 17 21 21 19 21 18 18 17 17 17 18 14 15 16 17 16 18 18 18 18 18 18 16 15 13 11 10 10 10 12 13 14 13 14 14 16 18 18 18 18 18 18 17 18 18 18 18 18 17 17 17 15 15 16 16 16 16 15 16 15 15 15 15 16 16 15 15 14 14 13 12 12 12 11 11 10 10 9 9 9 9 8 9 8
25 23 15 16 16 17 18 20 21 22 24 24 19 20 22 21 19 19 19 19 18 17 17 17 16 16 17 17 18 18 17 18 19 19 19 18 17 16 13 12 14 13 12 13 14 13 12 11 13 15 17 17 16 16 16 15 15 16 16 17 17 18 17 17 17 16 16 17 18 17 16 16 16 16 17 18 18 18 18 18 16 15 15 14 13 13 12 12 11 10 10 11 10 11 10 9 8
21 21 28 21 25 22 21 19 22 24 22 20 18 22 22 16 16 18 20 19 19 18 18 17 17 16 16 17 17 18 18 18 20 21 21 20 18 17 15 15 16 15 14 14 13 13 14 12 12 11 11 12 13 12 11 12 13 14 16 16 17 20 18 18 17 18 20 19 19 19 18 16 17 18 18 20 20 19 19 19 18 18 16 16 16 14 15 13 12 11 12 12 12 12 11 11 10
24 25 25 25 24 17 24 23 25 25 25 23 23 25 22 15 14 11 13 19 18 18 18 18 17 17 17 17 18 18 18 18 19 19 20 20 19 17 16 14 16 16 16 14 14 15 15 15 12 12 11 12 13 13 14 16 13 16 14 17 18 18 17 18 19 19 20 19 17 17 18 18 18 18 18 20 21 21 21 21 20 20 20 19 18 17 16 15 14 12 13 11 13 13 13 12 11
19 17 16 19 20 22 20 26 23 30 30 27 24 30 23 15 10 9 16 15 18 18 19 19 19 18 18 18 17 17 18 17 17 18 18 20 20 20 19 19 17 17 17 16 14 14 16 15 16 14 12 13 10 13 15 13 14 15 16 16 15 18 18 21 20 21 20 21 18 17 16 17 17 18 19 21 22 21 21 22 22 22 21 21 21 20 18 17 16 14 13 12 12 13 13 12 11
Wind_Speed
10 9 8 8 7 7 7 6 7 8 8 11 11 9 5 3 1 7 5 1 11 8 4 1 5 2 7 3 7 8 14 11 12 6 4 7 8 9 11 16 17 15 16 16 15 14 15 14 15 15 15 15 14 14 14 14 15 14 14 12 12 12 12 12 13 13 13 13 13 12 12 12 12 11 10 10 10 9 7 6 8 9 8 8 7 6 7 8 9 9 8 8 8 9 9 9 8
8 7 6 6 7 7 6 7 7 7 9 10 12 10 4 5 4 7 10 2 8 5 2 2 2 2 3 3 7 7 13 16 15 12 10 10 11 9 12 16 17 17 16 15 15 14 14 14 14 14 14 15 14 14 14 15 15 15 14 14 13 12 12 12 13 13 13 12 12 12 12 12 12 11 11 11 11 10 9 5 6 8 8 8 8 7 7 8 8 7 7 7 8 8 9 9 9
7 5 7 7 7 8 7 5 8 9 11 11 8 14 6 6 4 5 2 5 5 3 2 2 2 3 3 5 2 6 7 13 13 12 8 11 12 10 13 15 15 16 17 15 15 14 13 14 14 14 15 14 14 14 14 14 14 15 15 15 15 14 13 12 12 13 12 11 12 12 11 11 11 11 11 11 11 11 11 9 8 9 8 8 8 8 7 7 6 6 6 7 7 8 9 8 9
9 7 8 6 6 6 7 6 9 10 10 9 10 8 3 1 2 7 3 2 2 3 2 4 7 4 8 8 1 9 9 8 9 10 9 9 10 12 13 14 16 13 13 12 14 14 12 15 15 15 15 13 13 13 14 14 14 14 14 13 13 13 13 12 12 12 11 11 12 12 11 10 10 10 10 9 8 8 9 9 7 9 8 8 8 6 6 6 5 6 6 6 7 8 9 8 8
8 6 7 8 8 7 7 7 9 9 11 8 9 10 7 3 6 1 4 1 2 4 6 4 3 3 5 9 5 2 9 10 11 7 8 8 13 13 14 13 14 14 11 13 14 13 14 18 16 15 14 14 13 13 14 15 15 14 13 13 13 13 12 12 12 12 12 12 11 11 10 10 10 10 10 10 8 8 7 7 6 7 6 5 6 5 5 3 4 5 5 6 7 8 9 9 9
8 7 7 7 7 7 7 9 9 11 10 10 12 3 2 3 2 3 4 3 1 4 3 5 5 8 5 9 9 5 5 1 9 8 9 11 14 15 14 13 13 14 12 12 13 13 14 16 16 15 14 14 12 12 13 14 15 14 14 13 13 13 12 12 12 12 12 12 11 11 11 10 11 10 10 10 9 9 9 8 7 7 7 6 6 6 5 3 1 5 4 6 8 9 9 10 10
6 6 6 7 9 7 8 10 11 10 10 11 9 9 7 3 4 4 4 4 4 6 3 5 3 8 4 6 10 7 8 5 8 8 8 12 15 15 14 14 12 15 13 10 11 14 17 15 15 15 14 14 13 12 12 13 14 14 14 13 13 13 12 12 11 12 12 11 11 11 11 11 11 10 10 10 9 9 9 8 8 8 7 6 6 6 4 3 5 7 9 10 10 11 11 10 9
8 9 5 8 6 7 9 11 12 10 3 7 6 9 3 5 5 3 3 6 8 9 7 1 6 6 6 7 5 6 8 9 11 10 13 12 13 13 12 12 14 14 14 11 11 13 16 15 14 14 15 14 13 13 11 12 14 13 14 13 13 13 13 12 12 11 11 11 11 11 11 10 10 9 9 9 9 8 9 8 8 8 7 7 6 6 5 4 9 11 12 12 11 11 11 11 9
7 9 4 7 10 7 9 11 11 12 12 3 6 4 4 8 4 5 8 5 5 6 5 7 6 6 2 4 7 7 6 7 11 12 13 14 13 12 9 12 13 13 13 13 13 14 14 14 13 13 14 14 13 13 12 12 12 13 13 13 13 12 12 12 12 11 11 10 11 11 10 10 9 9 8 9 8 8 8 8 7 7 7 7 6 6 5 7 11 13 12 11 11 11 10 11 10
7 7 7 6 6 11 11 10 11 11 9 3 3 5 4 3 6 3 7 6 7 6 6 5 4 5 8 11 6 4 6 9 12 12 13 14 13 12 12 12 12 14 14 13 13 14 13 15 13 13 13 13 13 12 11 11 11 12 12 12 10 11 11 11 11 11 11 11 10 10 10 10 9 9 9 9 9 9 8 8 8 8 7 7 7 6 6 9 11 13 12 10 11 10 9 10 9
8 8 7 8 9 10 10 10 10 11 9 7 7 4 4 1 5 6 5 10 3 6 5 8 9 6 11 9 6 5 9 11 13 14 12 11 12 12 11 12 12 13 13 15 13 13 14 13 15 12 12 12 11 11 11 11 10 9 9 10 9 9 10 9 10 10 10 11 11 11 11 10 10 9 9 9 9 9 9 8 8 8 8 8 7 8 9 10 11 11 11 11 11 9 8 8 8
8 8 7 9 9 9 10 11 13 3 3 2 8 6 5 4 1 6 7 10 5 7 8 9 3 5 10 10 3 5 8 11 12 12 11 12 11 12 11 10 11 12 13 13 14 13 15 14 13 14 12 11 11 11 10 10 9 9 9 10 10 9 9 9 9 9 10 10 10 10 10 10 10 9 9 9 9 8 8 8 8 8 7 8 8 9 9 10 11 10 10 11 10 8 7 6 5
9 7 9 9 9 10 11 12 8 8 6 5 10 9 6 5 6 5 7 9 5 6 9 9 10 7 3 5 6 9 11 12 11 12 13 12 12 10 10 11 12 12 12 13 12 13 15 14 14 13 12 12 8 8 9 8 8 8 8 8 8 8 8 9 9 9 9 10 10 10 9 9 9 9 8 8 8 8 8 8 8 8 8 8 7 8 10 9 10 10 10 11 10 8 6 5 4
9 7 7 10 8 12 10 8 8 9 6 9 10 7 3 4 4 7 7 9 8 9 6 9 2 17 11 9 4 6 6 10 11 10 10 13 10 9 11 11 12 11 12 12 11 12 13 13 12 13 11 9 9 6 5 8 9 8 7 7 8 8 8 8 9 8 9 9 9 9 8 8 8 7 7 7 7 6 6 7 7 8 8 8 8 8 9 9 9 10 10 10 9 8 5 5 3
9 5 7 8 10 10 7 10 11 9 9 9 6 3 0 3 5 7 10 9 11 8 10 5 4 10 6 7 7 8 11 11 10 10 11 11 12 11 11 10 10 10 11 11 11 11 12 13 12 12 11 9 11 8 8 7 7 8 7 7 8 8 8 8 9 9 9 9 9 9 9 8 6 6 6 5 6 6 6 7 6 7 7 8 8 8 9 9 9 9 9 8 8 8 6 6 3
7 6 6 9 10 10 8 10 9 8 8 10 6 3 3 2 7 9 8 11 8 2 6 8 6 6 14 10 9 13 16 14 12 11 11 11 11 11 10 11 9 9 9 10 10 9 12 14 10 10 10 10 10 9 9 9 7 6 7 7 8 6 5 8 8 8 7 8 7 9 9 8 6 5 5 4 5 5 7 6 6 7 8 8 9 8 9 9 9 9 9 8 8 8 7 5 4
6 7 8 9 11 10 7 8 3 8 4 6 7 3 6 4 3 7 6 5 10 7 8 5 7 1 4 7 17 18 16 13 13 14 13 11 9 10 9 8 7 7 6 8 7 7 10 14 13 8 9 10 10 8 7 7 8 7 6 6 7 7 8 7 9 8 8 7 7 7 5 5 5 3 3 5 5 5 4 4 8 8 8 9 9 9 9 9 9 9 8 9 8 8 7 6 4
6 8 8 10 9 11 6 9 7 8 6 5 3 6 5 7 3 1 4 10 12 7 9 6 6 2 13 16 15 16 17 15 14 15 13 12 10 9 9 8 8 8 7 7 7 7 8 12 14 11 8 10 10 7 6 6 6 9 8 6 6 6 6 7 6 6 6 5 4 6 5 3 3 2 4 2 2 4 4 5 7 8 8 9 9 10 10 11 11 10 10 9 9 8 8 6 7
8 8 9 10 9 7 4 5 7 7 6 9 5 4 4 7 3 2 8 10 13 13 11 10 7 10 11 17 15 17 16 15 14 13 14 13 10 12 10 9 9 9 8 7 6 5 7 8 14 12 10 8 8 6 7 7 8 6 7 8 5 4 6 7 7 5 5 7 8 6 4 2 2 4 2 4 6 3 2 8 7 9 9 9 9 8 10 11 11 11 11 11 9 8 7 6 6
9 10 9 10 10 7 1 3 7 6 9 7 5 4 6 4 5 3 9 11 11 15 12 13 10 7 11 13 16 15 16 15 14 14 14 13 12 11 11 10 9 9 9 7 6 5 5 6 10 12 10 7 6 6 5 6 6 5 4 4 3 5 6 6 5 6 5 5 9 7 4 4 1 0 4 5 5 5 4 6 9 10 10 10 10 9 10 10 10 10 10 10 8 8 7 7 6
8 11 10 9 1 6 2 2 4 6 5 7 6 5 9 3 5 5 7 10 11 11 14 13 14 18 14 15 15 14 15 16 15 14 14 13 12 10 10 10 9 9 7 7 7 6 6 4 6 10 17 11 9 6 5 4 4 3 3 3 3 5 2 4 3 3 4 4 1 5 5 4 4 2 1 4 3 4 6 8 8 8 8 8 11 7 7 6 8 7 7 8 7 8 8 7 6
7 9 11 13 7 6 6 6 2 3 4 6 6 8 6 7 9 8 8 11 7 8 11 14 18 18 14 13 16 18 18 15 13 12 12 12 12 10 10 9 8 8 8 7 7 6 6 7 5 5 8 14 10 4 7 6 4 2 1 3 4 4 7 3 4 3 2 2 5 1 4 2 2 2 5 6 7 8 8 8 6 8 7 7 8 7 6 9 7 7 6 7 7 5 4 5 4
9 8 11 11 10 10 5 4 3 2 7 8 6 5 6 7 8 5 7 10 1 3 6 6 15 21 18 12 14 17 20 17 15 11 13 12 12 11 10 8 9 7 7 6 7 5 6 6 7 6 5 5 11 11 5 7 6 5 5 6 8 6 3 6 5 6 4 4 2 4 6 4 4 4 5 6 7 6 6 5 5 3 2 2 3 7 6 6 5 5 6 6 5 5 5 5 4
10 10 8 9 7 9 8 8 6 6 9 9 6 6 8 5 11 3 8 3 2 3 2 13 13 14 14 14 12 14 15 18 14 14 12 11 11 11 10 9 9 7 7 8 7 7 6 6 6 6 5 4 4 9 7 6 4 3 2 3 1 4 7 6 5 4 4 6 2 4 4 6 8 8 7 7 7 5 5 2 4 1 3 3 6 7 5 5 4 4 4 5 5 6 6 7 6
11 13 10 7 8 8 7 8 9 7 8 6 7 9 9 6 6 2 8 3 6 5 8 7 14 10 13 13 13 13 14 14 15 13 11 10 10 10 10 8 9 8 8 8 7 7 7 6 4 5 5 3 3 2 7 6 8 7 4 4 6 7 2 2 3 2 2 6 7 5 5 5 5 7 6 8 6 4 5 2 4 6 4 3 4 3 1 2 5 6 4 4 4 5 5 5 6
14 11 9 6 7 8 9 8 6 8 7 6 6 9 6 6 0 9 6 4 1 5 12 9 9 13 13 12 16 15 14 13 14 13 12 11 10 11 10 9 8 8 9 8 7 5 5 6 5 6 3 4 3 3 3 2 2 5 9 8 4 6 4 3 4 5 3 2 5 5 6 6 6 4 1 4 3 1 3 7 7 4 5 4 2 2 1 2 4 5 4 5 4 5 5 6 6
5 6 9 10 9 9 7 7 8 8 9 5 9 8 6 4 9 6 5 7 7 10 13 12 9 9 12 11 13 15 15 14 14 12 12 12 11 10 10 9 9 9 9 8 7 6 4 5 5 4 5 2 2 3 2 2 2 2 2 3 6 2 4 3 5 4 5 3 2 4 4 3 3 3 3 4 4 4 3 3 2 4 5 4 2 3 4 5 5 5 5 4 5 5 5 5 4
5 7 8 10 11 10 9 7 9 7 9 8 9 6 2 6 9 2 9 7 8 13 14 13 13 10 10 17 16 14 14 13 13 12 13 13 10 10 11 9 9 10 9 8 6 6 5 5 7 5 7 3 1 2 4 2 3 2 4 1 1 6 4 4 3 3 5 3 4 4 4 5 4 3 3 4 4 3 2 6 5 3 4 3 3 4 5 5 5 4 4 5 2 1 5 5 3
9 7 10 12 13 11 10 11 12 10 9 10 10 6 9 10 6 7 7 9 7 8 6 11 15 14 15 13 14 14 13 15 13 12 12 10 10 9 10 9 9 9 7 7 7 8 7 5 6 5 6 4 2 2 2 1 0 2 2 3 3 3 3 3 4 4 3 3 2 5 5 4 3 3 4 5 5 4 3 4 6 5 4 4 4 5 5 3 5 4 4 4 4 3 3 3 4
7 9 9 8 9 10 11 7 7 11 5 8 8 10 9 12 8 6 7 8 7 14 12 8 4 9 12 11 12 13 13 15 14 12 11 10 10 10 11 10 10 8 8 7 8 8 6 5 4 4 5 5 3 2 1 2 0 1 2 2 3 1 1 1 2 5 5 6 4 4 4 4 3 2 4 5 5 6 5 4 6 6 4 4 4 4 4 4 5 7 6 6 4 4 4 1 4
9 9 10 9 8 8 12 9 9 14 10 8 9 11 6 9 9 7 5 6 10 9 12 17 14 10 10 8 10 12 14 13 14 13 13 11 11 11 11 11 11 9 9 9 9 10 7 6 5 4 4 5 4 3 2 2 1 2 1 2 1 1 1 2 1 2 4 4 5 4 4 3 4 3 3 3 4 2 6 4 6 4 4 4 4 4 5 4 5 5 6 6 6 5 7 6 7
8 9 9 8 12 9 11 8 10 13 11 11 12 10 7 12 10 8 6 6 8 9 9 10 14 6 7 4 4 9 10 11 12 13 13 13 12 12 12 13 11 9 10 10 10 9 8 7 6 6 6 5 4 3 2 2 2 1 3 2 1 1 1 2 1 1 1 1 1 1 3 2 2 3 4 4 2 5 6 4 3 5 5 3 2 3 3 4 3 4 7 7 5 8 7 7 7
8 10 5 8 7 9 7 8 10 11 9 11 14 9 8 11 11 8 6 7 8 8 10 8 13 15 10 10 7 7 12 12 13 13 13 12 12 12 12 13 11 10 11 11 11 10 9 8 7 7 7 5 5 4 3 3 2 2 3 3 1 1 1 1 1 3 3 4 3 3 3 2 3 3 3 4 4 7 6 6 3 3 4 5 3 1 3 3 3 4 4 6 4 6 8 7 7
7 7 6 5 9 9 6 10 11 7 8 10 13 12 6 10 5 7 8 8 8 9 7 9 9 14 13 10 14 13 12 12 14 14 13 12 12 13 12 12 11 11 11 11 11 10 9 8 7 7 6 6 5 4 4 3 3 3 3 2 2 2 1 1 1 1 2 2 1 2 1 2 1 1 2 2 3 4 5 3 1 3 2 1 2 2 4 5 4 4 5 5 5 5 5 6 7
6 5 4 4 7 10 6 8 12 10 11 15 14 11 11 10 8 6 8 9 8 8 8 8 8 8 15 11 9 9 9 11 13 15 15 13 13 12 12 12 11 10 9 11 10 9 8 8 7 7 7 6 5 5 5 3 4 2 4 2 2 1 1 3 2 2 3 3 2 1 0 1 1 1 1 1 3 4 4 3 2 4 4 2 4 3 4 4 5 5 5 5 5 3 5 10 5
5 5 6 6 7 8 8 10 9 6 8 12 7 6 12 11 7 8 8 6 7 7 7 6 8 9 11 14 17 13 11 12 12 14 15 12 12 11 11 11 10 9 9 10 11 10 9 9 8 7 7 6 6 5 5 5 4 4 3 3 2 2 3 4 2 2 2 3 2 2 1 2 0 1 2 3 2 4 3 2 2 3 5 3 2 1 5 4 5 6 7 5 5 6 9 8 1
7 5 7 5 7 8 11 11 6 4 8 8 11 11 11 9 5 6 4 6 8 8 9 8 8 9 10 10 11 17 14 11 10 13 15 14 13 12 10 11 10 10 10 11 11 10 10 9 9 9 8 7 6 6 5 5 4 4 3 2 3 2 4 3 2 3 4 4 4 3 1 2 3 3 3 1 2 3 4 4 3 2 2 4 7 6 6 6 3 4 5 4 6 5 6 7 4
8 8 8 8 8 8 4 3 7 3 7 8 12 8 8 9 8 7 6 8 10 10 11 11 10 10 10 11 11 15 13 8 10 10 14 14 13 13 10 10 11 12 11 11 11 11 10 10 9 9 8 8 7 6 5 4 3 3 4 4 3 4 5 4 4 4 4 3 3 3 2 2 2 2 1 3 3 3 3 2 3 3 3 1 2 6 6 4 1 4 5 3 4 6 4 5 4
7 8 8 9 7 7 8 6 3 2 5 9 6 8 10 13 11 7 8 9 8 11 11 11 12 12 10 10 10 10 13 14 15 14 14 14 15 14 11 10 10 11 12 11 11 11 11 10 9 9 8 8 7 5 5 4 2 3 2 5 3 5 5 4 4 4 4 4 3 2 2 2 1 1 0 0 2 1 0 3 2 1 2 2 4 3 4 3 5 6 3 3 2 3 4 3 4
9 8 10 8 7 9 7 6 5 6 7 8 10 7 5 10 10 9 8 10 9 9 10 11 10 11 10 10 9 9 11 11 12 12 13 14 14 14 12 11 10 11 11 11 11 12 10 9 10 9 9 8 7 6 5 5 4 4 4 4 4 4 6 5 5 4 4 4 4 2 3 2 1 0 0 1 1 3 3 1 2 3 2 4 3 2 3 4 2 4 1 5 5 4 4 3 3
11 11 9 9 8 6 9 3 3 0 7 8 10 9 8 11 12 11 11 11 8 8 9 9 9 10 8 7 8 9 11 11 8 11 13 15 15 15 14 13 11 11 11 12 12 11 8 11 10 10 9 8 8 8 6 6 6 5 5 6 6 6 6 5 5 5 4 4 3 3 3 2 1 3 3 3 3 2 2 3 3 2 4 3 3 2 1 3 1 4 2 5 2 2 3 2 0
8 9 10 9 8 5 8 4 7 8 8 10 10 9 10 12 17 14 8 9 9 9 11 12 12 11 10 9 7 6 6 10 14 11 12 14 15 14 14 14 14 12 12 11 11 11 11 11 11 11 9 8 9 10 8 7 6 6 6 6 6 6 6 5 5 5 4 3 4 3 3 2 3 2 2 3 4 4 3 0 2 3 2 2 3 3 3 2 2 3 1 3 3 2 1 1 1
9 5 9 8 11 8 8 10 7 8 9 3 5 9 7 6 4 7 8 8 10 10 10 11 12 11 11 10 10 11 10 6 7 12 14 14 13 14 14 14 15 14 12 11 11 12 12 11 11 11 10 9 9 10 10 7 7 6 7 6 6 6 6 4 5 4 4 4 4 3 4 2 2 3 3 3 3 3 4 4 3 4 4 3 2 3 4 4 4 5 5 4 2 2 2 3 3
7 6 7 7 9 10 10 10 10 9 10 7 11 9 10 9 7 5 4 9 10 9 8 9 10 11 11 10 10 9 8 10 12 12 13 12 12 13 15 14 14 14 13 12 12 12 13 13 12 12 10 10 9 10 10 8 8 7 7 7 6 5 6 6 6 5 4 4 5 4 4 3 2 3 2 3 3 3 3 3 3 3 2 3 2 4 4 4 4 4 3 3 3 4 4 1 2
1 1 6 8 9 7 9 8 8 9 7 9 8 12 10 10 7 4 6 9 9 10 10 9 9 9 8 4 5 6 3 2 4 6 8 10 11 13 13 14 14 14 14 13 12 12 12 12 12 12 11 11 11 12 11 10 8 8 8 7 7 5 7 6 6 5 5 5 5 4 3 4 3 2 3 3 3 5 3 4 3 4 4 4 3 4 4 5 5 4 4 4 4 4 4 3 3
1 5 5 8 8 6 9 9 9 8 8 9 11 7 9 8 6 7 10 10 11 9 9 7 8 7 6 6 4 1 3 3 4 5 4 5 8 10 12 12 13 13 13 13 13 12 13 12 13 14 12 11 11 13 11 11 10 9 8 7 8 7 7 7 6 6 5 5 5 5 4 3 4 3 3 3 4 4 4 3 3 3 3 5 5 5 4 4 4 4 4 4 4 3 3 4 4
7 7 9 9 8 8 7 8 8 7 9 11 12 9 10 9 6 6 6 4 6 6 6 7 6 4 5 3 4 5 3 1 2 1 2 3 5 6 8 12 13 13 12 14 13 13 13 13 14 15 13 11 12 13 13 12 10 9 8 9 9 8 8 8 7 7 6 6 5 5 4 4 3 4 3 4 3 4 3 3 3 3 3 3 3 3 4 4 3 4 3 4 5 4 4 3 3
7 8 9 6 9 8 8 8 8 8 9 11 11 10 7 9 7 6 5 4 2 2 7 6 4 5 2 3 2 1 1 2 3 2 1 2 1 6 8 11 13 13 13 13 12 13 14 14 14 15 14 13 13 12 13 12 10 9 9 9 10 9 9 7 8 8 7 7 6 5 5 5 4 4 3 4 3 4 3 3 2 2 3 2 3 3 2 3 3 3 4 3 4 4 3 3 3
9 9 9 8 6 5 7 7 7 8 7 4 2 6 7 10 9 3 6 5 6 4 2 3 4 1 2 1 2 2 4 4 4 3 2 2 1 4 8 10 11 13 13 13 13 12 13 14 15 16 15 14 13 13 13 12 11 10 9 9 9 8 9 8 8 8 7 7 6 6 5 5 5 5 4 4 4 4 3 3 2 2 2 2 2 3 3 4 3 3 4 4 4 5 5 5 4
9 10 5 8 7 7 8 8 5 8 10 3 1 4 8 6 5 2 7 5 5 4 1 2 2 2 0 1 0 3 3 5 5 5 6 4 3 0 4 7 9 11 12 12 12 12 12 12 15 16 15 14 13 13 13 13 12 11 10 9 9 8 9 8 7 7 7 6 6 6 5 5 5 5 5 5 5 5 3 3 2 3 2 2 2 2 2 2 1 2 3 4 3 4 4 4 4
9 8 9 8 8 6 8 8 7 6 5 4 2 3 4 7 3 5 7 6 5 5 6 7 4 4 2 2 4 5 6 7 7 7 6 6 4 2 1 4 7 9 10 11 11 11 12 12 13 15 15 14 13 13 12 12 11 11 10 9 9 8 8 8 7 7 7 7 6 7 6 5 5 6 6 5 6 5 4 4 3 3 3 3 2 2 2 1 1 1 3 3 3 3 3 4 4
8 8 8 9 7 6 10 5 7 7 5 5 7 4 1 1 8 4 5 8 6 6 7 7 6 4 5 5 5 6 6 7 7 7 6 6 5 3 1 3 5 6 8 9 11 10 10 10 12 13 13 13 12 12 11 12 11 9 10 10 9 9 8 8 7 7 7 7 7 6 7 6 5 5 6 6 7 6 5 5 5 4 5 4 4 3 2 2 1 1 3 2 2 2 2 2 2
1 7 9 7 6 9 6 6 8 3 6 10 6 5 9 3 9 8 8 6 8 7 8 8 7 7 7 6 7 7 8 8 8 8 7 6 6 4 3 2 3 4 5 7 8 9 9 8 10 12 12 11 12 11 11 11 11 10 11 10 9 9 8 9 8 8 7 8 7 7 7 7 6 5 6 7 7 7 6 6 5 5 5 5 4 4 3 2 3 2 2 3 3 3 2 2 1
7 7 4 7 7 7 6 6 3 5 8 6 6 8 9 8 4 9 9 9 7 8 8 9 7 8 7 7 8 8 9 9 9 9 9 8 7 6 4 3 4 4 6 6 8 7 8 7 8 10 11 11 11 10 10 9 10 10 10 10 10 9 8 8 7 7 8 7 8 7 7 7 7 6 6 7 8 8 7 8 6 6 6 5 5 5 4 4 3 3 3 3 3 3 2 2 2
10 9 4 6 3 6 6 4 8 7 8 7 7 10 9 7 5 6 8 9 9 8 8 8 8 8 8 9 10 9 9 9 9 9 9 8 8 7 6 5 5 5 6 6 7 6 6 6 7 8 10 9 9 8 8 7 8 6 7 8 10 9 9 8 8 8 7 7 8 8 8 7 8 8 8 8 9 9 8 8 7 7 7 7 6 5 5 4 4 3 3 3 3 3 3 3 2
12 11 12 7 8 8 7 4 7 7 9 7 7 9 6 5 5 10 7 7 10 9 9 8 8 8 7 8 8 9 9 8 9 10 10 9 9 8 7 6 6 6 7 7 6 6 7 6 6 5 6 6 7 7 6 6 6 6 6 6 8 8 9 9 8 8 8 8 8 8 8 8 8 8 8 10 10 10 10 10 9 8 8 8 8 7 7 6 5 4 4 4 4 4 4 3 3
8 10 9 9 8 5 8 7 8 8 8 8 7 8 6 3 5 3 6 11 9 8 8 8 8 8 8 9 9 9 9 9 9 10 10 10 9 9 8 7 7 7 7 6 6 6 7 7 6 5 5 5 5 4 4 2 3 5 5 6 7 7 8 8 8 8 8 8 8 8 8 7 8 8 8 9 10 11 11 11 11 10 10 9 9 9 8 7 6 6 5 5 5 5 5 4 4
7 5 5 5 7 9 8 9 7 10 9 8 8 9 7 5 2 1 7 4 8 7 8 8 9 9 9 9 9 9 9 9 9 9 10 10 10 10 9 8 7 7 8 8 7 6 8 8 7 6 4 4 3 4 6 4 2 4 5 6 7 7 8 8 8 8 9 8 8 8 7 8 8 9 9 10 11 10 10 12 11 11 11 11 11 10 9 8 8 7 7 5 5 6 6 5 4
Wind_Direction
256 236 249 247 256 259 256 217 248 183 239 244 254 245 286 184 262 279 273 224 244 94 331 353 263 161 271 342 286 81 43 20 23 332 82 132 124 109 117 124 121 133 132 131 131 135 133 124 121 117 118 117 117 117 120 120 120 120 121 118 112 108 107 109 115 116 120 120 122 124 125 126 126 127 122 119 111 99 94 117 134 127 123 126 125 123 130 121 120 113 111 106 109 111 106 102 98
233 241 237 247 243 243 214 216 255 259 213 243 245 259 192 141 90 241 259 188 360 53 334 253 243 262 28 283 302 79 58 56 50 86 111 113 137 133 125 133 134 133 131 131 136 137 136 131 122 121 120 120 122 122 123 121 119 121 122 123 118 113 111 114 119 122 122 123 124 127 128 129 130 132 131 129 127 124 126 133 154 134 138 139 140 141 141 129 127 119 119 111 114 112 107 101 98
267 228 220 220 235 239 298 210 250 241 246 241 236 228 93 222 247 198 240 44 30 30 235 247 333 237 156 285 273 237 95 73 88 85 94 130 131 135 137 130 127 134 131 133 137 138 136 132 125 121 121 124 124 126 125 121 120 122 123 122 122 123 122 119 121 124 123 124 126 127 129 129 132 134 137 138 137 145 152 172 155 140 148 152 161 167 143 141 128 121 113 125 115 109 110 102 99
282 265 260 211 223 206 243 227 239 269 261 261 268 82 231 286 261 24 28 35 68 246 207 147 226 79 285 219 95 74 84 83 81 106 123 151 131 138 131 127 127 123 127 136 135 136 137 131 127 125 126 127 129 130 127 124 125 125 122 118 120 121 122 124 124 124 128 127 127 126 128 130 131 133 125 123 136 149 158 160 148 149 152 156 151 152 152 129 133 130 129 126 120 113 108 106 103
250 237 242 245 271 222 232 242 249 239 246 253 258 88 7 120 8 302 83 70 93 280 217 142 246 141 38 21 4 111 83 102 90 97 110 109 131 132 126 135 128 123 130 133 134 134 130 134 130 129 129 131 133 133 131 128 131 128 123 125 126 128 129 127 127 129 130 130 127 128 127 130 131 125 121 109 101 96 105 114 121 129 129 127 129 136 121 119 156 137 143 125 114 112 105 103 104
237 245 207 255 243 0 284 250 239 243 267 282 267 49 78 32 344 10 95 248 150 242 288 191 244 162 185 42 45 73 354 214 102 97 128 124 131 133 130 135 132 126 130 131 135 137 135 131 131 133 130 132 137 135 133 132 133 134 133 133 134 133 132 131 131 131 132 131 131 131 131 132 130 130 119 118 113 107 105 103 101 113 121 124 131 130 114 42 161 138 140 110 108 111 106 105 101
220 217 196 224 250 251 252 253 251 254 245 238 266 294 46 56 43 268 161 204 195 228 180 219 257 169 131 139 91 88 27 88 143 133 139 131 128 142 142 139 135 126 129 130 132 131 133 132 134 132 132 133 134 137 137 134 136 138 140 138 137 135 136 137 135 138 137 137 136 135 136 136 137 133 129 126 120 115 107 111 115 115 114 115 118 125 127 75 77 103 100 107 107 107 101 99 100
264 260 169 228 237 203 230 250 259 266 147 246 24 293 65 59 309 279 286 256 152 233 180 293 215 191 91 219 127 74 77 46 97 127 130 139 137 140 144 130 130 131 127 131 127 126 127 130 132 132 132 133 138 139 143 143 140 143 147 144 141 141 141 143 142 141 143 143 141 139 139 140 135 134 128 126 120 115 111 113 118 116 119 120 127 135 135 90 104 102 105 112 118 116 109 98 99
227 237 242 255 254 231 242 247 254 234 268 102 243 272 24 297 343 305 267 253 73 238 183 208 206 201 127 17 68 75 82 100 108 129 132 133 143 140 133 133 134 131 127 125 130 129 135 129 133 133 132 135 141 146 149 147 148 147 150 150 148 146 145 147 148 145 144 144 143 142 140 136 134 129 124 121 122 120 121 119 122 125 124 132 135 136 130 118 116 112 116 123 127 122 119 112 103
225 239 201 242 258 251 245 239 242 248 244 303 279 215 188 168 252 257 290 229 217 167 229 228 206 149 159 119 121 162 109 116 123 132 140 144 149 137 135 128 124 126 124 123 133 137 133 134 130 130 133 137 143 152 151 149 155 154 151 150 148 145 146 147 148 149 146 146 146 146 142 139 136 134 131 130 130 131 136 130 127 132 136 137 135 136 126 135 125 120 127 133 131 128 124 116 110
234 198 274 266 241 251 251 257 249 229 225 229 243 266 223 221 269 262 246 281 156 213 163 235 202 169 134 116 95 82 128 131 139 141 144 144 139 134 120 123 130 125 126 133 140 134 138 141 134 131 133 138 150 154 149 152 157 151 146 146 147 144 144 142 147 149 148 149 152 149 149 143 140 140 140 138 135 140 142 139 133 130 142 141 141 137 133 135 130 127 133 136 131 128 131 122 125
248 219 200 244 250 252 248 246 247 257 77 241 252 181 131 262 315 261 236 241 176 216 206 171 257 181 139 125 126 136 131 140 140 139 149 145 121 118 131 127 126 125 126 128 134 141 143 141 146 137 135 147 153 148 146 150 150 145 149 154 149 140 144 149 143 142 150 152 153 150 146 146 141 142 143 139 134 139 146 144 137 132 137 146 147 146 140 142 136 135 138 135 131 132 133 128 129
252 247 230 245 255 250 257 271 298 288 308 275 248 116 90 242 260 254 280 270 223 196 209 213 130 217 107 143 108 159 150 137 139 150 149 127 124 136 130 122 123 127 129 128 133 141 144 148 148 151 146 152 129 132 145 149 140 142 155 151 141 139 147 148 147 148 151 155 151 145 137 142 136 136 137 138 141 138 143 147 145 141 142 146 144 145 145 146 147 141 142 142 139 139 138 125 115
240 251 272 261 258 261 277 281 286 279 248 239 86 112 100 287 254 285 289 268 253 213 190 186 190 82 115 104 133 143 168 139 145 144 131 127 134 129 124 128 130 134 135 133 135 141 147 142 144 145 152 152 150 119 128 147 141 143 153 146 135 146 156 151 151 147 153 151 148 136 138 139 137 133 123 127 135 129 129 140 148 152 148 146 146 144 147 147 147 148 150 146 140 140 136 121 103
255 250 267 272 270 270 242 257 256 252 255 102 96 103 198 225 296 264 252 261 248 244 153 231 203 177 142 187 162 179 152 151 147 134 126 133 132 131 134 130 134 134 133 134 142 146 138 135 145 148 159 160 162 161 163 142 131 145 147 143 140 154 162 152 147 155 154 146 142 143 147 136 128 129 121 117 111 121 139 148 153 154 153 149 152 155 151 146 148 151 155 146 143 143 139 122 109
250 269 255 255 249 253 246 243 242 273 275 106 107 222 248 249 248 249 237 251 298 54 140 185 196 288 153 189 161 160 154 151 147 138 136 132 134 131 131 133 138 135 132 136 140 147 140 134 142 155 160 167 167 170 164 160 138 127 136 137 119 104 136 165 151 157 147 136 139 149 141 142 132 131 121 129 119 131 157 173 152 159 163 158 153 156 156 153 156 160 149 140 139 143 138 130 120
235 264 255 239 252 244 247 252 226 242 251 119 93 66 313 325 50 267 289 299 265 209 195 193 212 181 193 182 138 143 148 144 144 145 142 139 145 139 146 134 135 127 132 137 145 152 139 132 137 145 159 165 160 160 164 157 135 139 144 112 105 105 90 115 103 123 128 125 145 127 137 158 143 100 153 183 154 184 150 144 168 165 171 165 159 161 161 159 154 150 146 144 145 148 157 151 152
220 227 239 245 251 247 243 249 240 42 282 117 52 40 320 284 338 260 233 234 240 219 211 177 122 143 65 84 112 131 143 143 148 149 150 149 148 146 147 143 142 146 148 142 151 163 143 133 135 149 157 161 159 159 162 160 140 181 176 172 167 146 134 125 149 162 170 171 157 141 175 180 148 153 170 156 211 219 155 166 162 171 170 171 170 165 162 161 157 155 150 155 154 163 168 195 185
228 229 236 252 235 249 331 357 337 322 292 347 3 303 353 293 355 265 256 227 215 218 198 143 137 100 93 116 134 145 147 141 153 153 152 152 154 150 150 150 148 147 149 148 149 158 144 142 141 142 149 154 152 159 152 150 171 191 196 180 155 197 188 201 186 187 202 184 180 171 168 124 128 147 250 209 193 218 218 180 166 169 166 168 174 166 162 162 165 164 162 161 169 175 197 227 224
224 255 241 236 262 293 357 326 283 295 311 285 300 315 302 315 274 25 262 264 207 220 196 172 136 134 147 150 143 138 144 149 157 159 159 157 154 154 149 151 153 156 152 152 150 155 149 156 143 137 127 137 165 161 155 141 176 191 188 144 221 189 199 199 193 214 193 208 201 171 145 106 105 45 204 190 147 188 199 192 177 166 168 166 166 175 166 164 162 168 171 169 176 196 215 212 225
192 233 246 252 146 296 260 267 282 271 282 289 285 312 276 100 307 287 264 259 240 220 208 187 157 150 174 150 152 153 154 156 166 168 162 161 157 154 153 154 159 155 150 153 155 157 148 154 137 142 142 160 161 137 128 135 151 178 158 199 194 195 84 257 204 220 213 223 73 72 98 130 157 183 254 237 187 216 211 205 186 187 182 182 174 188 184 159 183 184 184 192 211 207 218 224 215
268 241 252 265 288 246 273 266 281 306 312 289 268 263 287 348 258 236 249 252 236 232 222 207 166 153 148 166 168 158 157 159 167 167 170 159 158 154 149 149 152 146 149 162 147 154 157 162 154 154 146 154 142 142 152 147 159 166 180 269 216 206 167 130 224 222 304 288 70 100 86 182 66 191 214 216 213 207 207 207 198 204 193 195 190 206 192 170 199 194 200 203 223 222 220 270 272
243 227 246 262 269 276 321 332 279 248 257 253 262 284 329 272 292 255 255 254 27 8 279 171 149 147 154 172 174 163 156 158 161 176 165 162 155 155 157 151 147 156 161 144 150 158 165 170 161 159 159 143 140 150 160 147 181 151 200 201 200 202 152 190 191 201 177 113 132 158 162 169 162 233 240 220 230 204 221 202 206 0 293 120 241 222 193 178 203 203 190 201 218 228 211 208 240
248 262 235 224 255 264 253 254 258 254 243 244 260 296 271 290 261 165 240 202 98 127 27 102 114 126 153 169 166 173 155 152 161 168 160 159 159 156 153 153 148 160 161 145 148 151 188 167 164 159 149 148 166 142 145 160 150 163 188 216 12 226 184 191 189 222 115 106 172 203 164 179 183 198 208 212 218 215 247 250 37 135 252 148 229 260 188 183 204 250 204 205 216 213 212 200 202
230 240 259 259 252 260 266 253 244 248 257 257 249 256 259 239 288 136 225 164 175 205 119 71 119 148 167 168 170 169 156 152 158 161 156 158 156 150 155 154 153 164 142 152 152 154 185 153 160 148 135 161 150 158 143 174 184 169 227 243 186 206 188 153 190 45 151 172 170 201 195 188 223 195 209 218 202 164 216 122 210 190 189 211 205 245 256 218 212 215 197 218 207 223 211 218 205
219 250 256 261 253 247 238 237 239 244 242 225 243 243 231 239 353 233 156 135 116 134 94 105 138 165 154 173 175 164 154 159 154 159 160 158 150 157 156 158 155 168 146 152 158 145 172 150 165 138 153 167 144 188 163 175 167 184 166 196 175 176 147 170 139 161 174 204 173 183 193 199 213 217 273 317 59 151 237 172 217 248 180 178 187 214 211 247 233 234 218 207 216 240 225 199 224
7 233 243 256 255 248 234 251 242 227 234 194 240 219 198 187 216 158 124 112 167 158 120 129 156 175 161 181 176 159 157 156 159 163 160 157 157 163 159 157 167 154 143 143 155 149 132 150 144 159 126 46 130 180 98 139 181 200 280 169 165 128 127 185 180 161 129 95 69 176 195 209 229 222 239 224 203 199 223 337 299 222 241 212 230 204 187 221 225 238 237 213 201 202 266 215 203
223 257 266 255 254 244 248 233 243 219 212 214 236 225 175 180 214 210 138 148 173 140 163 157 163 176 186 189 167 160 153 156 159 168 165 163 165 165 165 167 163 143 150 147 155 132 143 164 145 118 98 97 308 101 145 169 199 191 160 215 15 134 193 208 119 116 102 150 147 171 197 217 215 219 230 246 265 249 190 219 239 222 230 232 225 231 223 227 241 238 236 241 341 62 245 279 192
245 241 253 234 223 233 204 227 214 207 208 188 222 216 205 178 206 109 132 159 164 111 133 162 174 177 185 171 167 156 157 163 162 170 171 169 161 162 165 158 155 150 144 152 131 131 139 111 105 108 107 102 115 47 44 37 293 253 163 206 158 139 175 169 166 114 154 128 152 189 198 195 213 215 208 234 236 242 248 251 235 226 226 217 209 236 244 218 248 220 227 244 227 151 194 229 272
244 237 254 250 229 220 183 220 204 197 138 190 197 230 193 196 133 128 141 167 176 158 153 176 138 172 168 185 166 158 161 165 163 174 172 167 162 163 162 155 156 157 145 146 130 135 135 122 124 120 117 124 114 119 87 236 89 323 351 352 77 171 137 125 156 159 151 147 172 170 193 202 197 204 207 219 235 229 228 225 253 243 239 226 214 223 234 228 234 232 227 202 207 217 191 209 263
236 212 220 255 226 203 146 205 167 217 117 204 206 247 201 140 122 131 153 167 193 181 171 172 162 182 168 180 168 164 161 169 165 170 169 168 159 158 159 153 161 158 146 141 147 141 145 133 131 124 141 127 140 114 162 16 36 335 240 65 27 342 77 134 175 189 167 142 192 184 203 215 238 216 220 233 229 266 266 234 245 236 230 226 216 217 235 234 249 257 270 252 181 196 205 188 218
234 222 207 225 248 127 158 185 175 222 142 203 213 239 226 150 151 144 157 195 202 183 185 166 146 193 166 164 194 167 161 162 170 166 167 159 156 156 154 156 160 153 145 144 146 146 143 137 138 129 145 130 136 127 112 53 83 43 39 68 45 354 142 158 148 120 90 110 162 165 203 215 247 228 230 223 237 254 236 267 269 322 278 240 246 235 237 234 230 279 254 244 230 207 220 196 203
212 238 239 208 229 124 165 201 174 250 151 196 217 231 203 154 135 157 167 193 211 210 187 180 160 163 169 177 195 188 162 173 173 165 160 158 153 152 156 152 161 150 142 149 148 148 146 136 140 137 144 137 141 129 121 120 104 110 107 93 133 172 98 94 132 200 145 144 162 176 161 173 203 219 221 224 202 243 244 228 113 255 327 323 286 299 265 249 252 253 269 260 272 239 222 208 202
206 219 239 247 226 170 205 141 204 166 220 183 206 251 254 92 133 159 178 198 192 226 194 189 201 156 176 179 194 190 183 168 178 158 162 160 152 153 154 154 154 148 146 150 151 153 151 142 150 144 146 147 141 139 140 141 118 122 141 104 52 63 13 351 58 38 118 146 151 69 140 131 264 274 256 247 268 266 263 264 198 140 246 238 226 255 236 236 238 258 260 268 247 252 271 243 201
232 185 259 224 262 295 128 199 144 209 198 250 187 225 240 161 171 163 187 190 208 203 217 198 198 197 147 178 179 187 179 175 186 158 162 159 152 155 154 156 155 154 152 153 151 153 152 146 147 147 153 146 142 143 138 121 133 132 85 145 135 178 138 56 48 71 44 59 99 147 349 69 244 239 228 246 247 251 273 271 187 192 154 292 304 257 238 253 246 239 268 299 298 270 256 256 213
338 224 215 228 216 202 264 102 150 256 189 233 251 221 240 225 198 200 190 203 213 210 211 211 206 202 191 197 179 187 186 190 192 161 160 161 158 157 152 156 156 156 159 154 154 154 153 148 148 151 156 149 143 152 159 161 163 165 142 148 152 98 89 92 92 107 131 81 70 59 79 267 327 328 336 317 317 296 290 249 284 273 140 194 229 332 294 263 241 242 242 260 280 238 249 253 205
325 309 311 290 247 209 183 104 82 209 292 243 223 220 253 253 218 217 188 198 228 226 209 213 220 207 209 204 198 166 176 178 198 167 162 162 160 159 157 157 158 159 164 160 161 159 156 157 152 156 153 155 162 166 173 170 164 156 150 137 117 165 113 112 94 59 65 60 37 68 54 51 13 354 333 326 297 337 300 316 334 338 292 170 189 191 220 230 216 263 257 236 256 278 259 307 317
292 271 254 249 235 267 268 166 105 151 249 244 242 220 241 259 235 234 217 227 221 219 219 209 213 224 215 210 205 177 154 155 183 185 168 165 161 162 164 164 165 167 170 170 168 164 162 158 157 154 155 163 170 174 159 174 171 159 167 151 148 147 143 161 127 108 77 81 72 53 42 29 30 328 336 333 337 273 323 269 295 21 337 81 128 187 185 170 62 279 267 247 228 242 260 241 243
259 263 254 253 243 240 69 89 193 130 240 262 240 227 244 245 236 203 206 231 232 222 224 216 216 213 219 214 197 194 164 192 185 189 178 171 166 167 170 172 173 176 170 175 173 168 167 164 161 158 160 163 164 170 164 164 156 94 190 122 160 103 62 58 87 90 108 106 91 85 48 60 296 100 1 212 258 270 257 345 357 344 40 63 71 48 119 175 220 219 213 237 248 248 269 245 219
255 235 248 249 257 244 189 181 215 213 251 275 288 274 245 267 245 220 205 227 230 221 218 223 219 218 214 218 202 203 183 179 171 182 184 180 171 172 175 174 178 178 173 177 178 177 172 172 164 162 159 165 158 162 170 135 126 124 88 126 91 109 117 105 107 115 107 123 113 54 72 11 18 49 193 204 30 51 353 343 0 2 11 13 8 86 89 81 86 89 239 230 228 232 236 243 244
222 251 263 251 234 260 289 102 251 259 244 266 267 262 252 239 242 216 211 217 220 206 213 212 207 221 217 215 216 200 200 166 179 196 194 192 181 178 180 180 176 183 180 179 179 180 175 174 167 164 161 164 159 155 163 136 133 138 127 116 107 103 126 144 148 134 133 114 112 120 106 85 45 42 38 34 75 73 6 1 16 343 8 360 340 3 24 33 95 128 120 101 165 241 282 250 112
239 210 259 284 283 285 255 178 189 224 229 199 227 252 250 239 233 232 199 185 215 200 203 206 202 202 206 210 226 258 254 170 184 210 206 207 192 183 183 180 183 185 183 181 177 180 175 173 169 165 161 163 157 156 156 152 158 157 156 154 150 158 149 157 155 142 142 149 95 92 118 122 69 61 65 54 34 48 79 23 338 329 58 352 4 15 27 93 30 3 35 104 130 178 164 30 82
260 226 205 240 268 251 247 243 232 251 256 167 190 255 265 251 228 219 201 195 205 200 210 204 199 196 199 205 200 203 206 214 220 202 220 206 200 196 188 187 186 185 185 178 176 179 177 174 170 169 163 162 157 158 158 161 164 168 174 169 162 164 152 147 122 131 126 104 116 113 93 93 92 76 60 68 68 39 30 35 20 6 32 33 36 16 44 6 33 22 345 17 359 142 99 118 130
257 29 185 242 237 238 241 256 250 264 279 158 199 245 266 258 231 196 189 207 208 189 197 213 204 199 205 203 204 196 200 187 202 219 208 213 207 204 200 194 190 187 181 179 177 178 178 177 171 171 165 162 159 159 163 169 171 171 179 176 163 168 153 132 135 134 113 122 120 134 128 128 141 102 95 87 104 70 65 54 45 34 15 48 44 70 55 42 41 68 30 13 31 11 346 55 124
76 278 288 247 261 257 257 244 252 264 279 273 241 217 244 256 250 161 188 216 219 207 194 203 218 202 191 200 213 196 173 150 206 207 211 214 212 206 204 199 196 189 184 183 178 177 176 176 172 172 168 163 160 162 165 172 179 172 183 174 168 165 139 143 150 142 139 132 143 145 139 121 117 112 84 89 72 90 91 75 48 39 19 11 45 83 62 55 49 36 40 46 30 32 24 18 330
255 299 262 266 255 252 244 249 250 243 242 247 249 233 267 260 252 216 192 233 241 219 181 193 216 209 205 182 150 150 192 205 214 216 225 225 225 219 203 200 195 194 188 182 176 175 176 175 174 174 171 167 162 165 169 173 181 174 184 178 173 162 152 155 162 147 146 153 148 145 138 147 129 130 128 112 115 112 99 98 76 56 33 27 30 50 60 70 49 56 49 42 34 61 45 25 24
304 292 267 234 245 239 230 244 250 256 245 243 247 243 238 258 246 234 215 213 278 196 163 210 203 193 176 118 238 212 253 246 259 254 206 211 225 241 221 203 195 192 188 183 178 178 177 176 175 177 173 170 164 168 170 172 181 180 185 180 176 165 161 160 158 159 159 169 157 161 167 146 143 127 133 137 125 116 113 89 79 66 52 34 42 43 41 53 69 74 72 54 49 37 51 55 48
255 237 238 243 231 235 240 244 239 251 252 248 241 238 218 254 230 240 130 147 302 80 156 176 206 170 100 54 293 356 0 311 308 313 43 61 237 226 223 212 194 190 191 188 180 178 178 177 176 176 174 173 167 170 172 173 179 184 185 180 177 170 167 168 163 170 166 177 167 171 170 155 154 143 151 147 148 132 134 112 102 91 66 55 44 40 46 79 74 71 53 54 67 63 58 52 48
231 242 238 242 254 224 231 223 225 230 252 287 239 228 217 233 268 259 144 148 152 200 267 182 175 254 36 270 5 347 358 345 344 26 44 47 305 231 218 210 197 190 190 192 184 181 179 178 177 177 175 175 169 171 174 176 180 182 185 180 181 173 175 177 173 172 171 179 176 183 173 173 161 165 169 163 158 160 151 145 160 129 109 59 37 50 51 37 53 57 58 70 54 49 49 36 47
234 240 230 244 238 237 245 239 243 246 232 223 254 45 251 300 263 94 142 115 92 119 131 94 100 91 157 311 262 39 19 22 17 30 36 34 15 225 203 203 196 199 202 205 194 183 180 179 180 180 176 175 169 173 175 178 182 182 183 184 182 179 180 178 187 177 180 186 180 181 189 184 173 174 172 181 160 182 172 160 165 119 103 102 89 73 54 54 33 94 98 74 79 72 67 70 68
240 250 237 237 257 258 256 259 259 262 285 134 179 212 251 239 25 117 109 130 141 139 135 131 133 137 108 55 33 39 39 37 34 41 34 38 44 26 167 194 206 209 209 211 206 189 182 180 183 182 177 176 173 173 176 180 181 183 183 187 186 189 185 185 193 186 180 192 189 178 193 190 184 179 175 182 160 188 177 169 167 153 154 148 135 132 134 114 345 48 87 72 66 67 61 48 58
245 241 254 240 236 252 270 297 296 302 303 265 183 238 249 130 161 118 140 138 143 143 130 142 136 112 102 89 72 60 52 48 49 52 56 57 53 53 90 201 201 204 203 208 206 200 188 183 182 183 181 176 176 173 178 181 181 183 187 190 193 197 192 193 198 195 184 192 191 186 188 192 197 179 176 177 167 188 182 183 175 177 168 167 169 164 185 161 145 148 107 101 91 82 88 95 104
15 259 237 247 275 255 254 259 242 167 251 254 270 233 234 166 197 164 169 154 148 166 154 152 133 116 103 87 77 69 61 56 54 60 63 71 81 82 98 139 150 189 197 198 201 196 190 181 179 180 183 177 179 176 179 179 181 185 188 193 197 200 203 204 202 198 196 185 195 192 190 190 197 187 180 176 173 190 185 189 190 180 181 180 178 181 191 166 177 201 134 148 144 133 153 99 49
279 251 265 288 264 305 289 281 269 247 257 260 232 247 257 235 251 168 185 204 159 174 179 134 128 128 110 93 80 70 63 60 63 68 64 56 55 65 82 99 122 150 161 168 179 183 178 183 175 175 182 177 179 177 181 180 185 189 188 194 199 202 207 212 214 207 200 196 195 197 197 189 195 192 185 175 182 190 189 191 196 189 183 189 185 190 197 168 202 202 145 187 154 150 156 150 165
263 269 18 269 245 234 226 255 257 268 264 271 253 262 260 258 251 138 207 205 175 187 172 152 155 125 109 99 85 77 70 67 63 61 64 65 63 61 70 81 97 109 120 137 140 145 154 169 169 175 180 179 172 175 182 184 187 191 197 199 200 202 207 212 216 219 208 210 206 207 204 201 194 193 191 180 186 192 190 191 202 194 189 191 190 194 196 182 210 193 175 198 155 195 190 167 157
225 262 265 258 267 261 265 250 278 272 269 266 273 267 263 259 253 177 201 211 174 173 170 178 146 123 111 99 94 87 75 68 69 65 62 68 72 70 66 67 80 96 107 110 112 116 122 117 124 143 156 175 179 177 174 182 185 191 202 211 212 213 212 213 217 221 220 215 219 221 218 211 204 201 198 187 191 194 193 193 199 198 196 195 194 195 194 194 201 198 193 209 174 211 210 184 176
216 225 245 241 241 286 288 274 259 261 273 273 279 270 253 261 50 45 142 203 179 171 184 145 130 122 113 105 97 89 85 79 74 74 74 71 73 82 93 95 89 85 79 79 87 98 100 108 104 113 130 138 165 164 167 204 190 199 208 223 232 230 227 223 223 227 229 230 226 226 230 223 216 211 211 199 199 200 199 197 198 201 201 198 199 196 194 197 198 196 198 214 173 207 215 204 193
293 298 284 274 266 246 242 254 240 258 264 269 269 271 284 78 299 201 274 231 161 173 164 142 140 126 115 108 102 101 97 89 86 84 84 84 82 78 72 77 95 106 107 105 105 98 87 87 90 86 98 123 138 170 178 169 270 234 214 221 231 249 248 239 235 234 236 236 242 235 232 231 229 217 220 216 207 207 206 203 204 203 203 203 202 200 195 196 200 196 196 197 184 205 216 211 194